User: anonymous   Login
Location: Betpouey
(42.8833°N, 0.0333°E)
Time: 16:31:07
(UTC+00:00)
Language:

deb Agena D - Orbit

View from above orbital plane
View from above orbital plane
View from above satellite
View from above satellite

Ground track
Ground track

The orbit data is extracted from the following two-line orbital elements,

1 05067U 70025JM  21172.25677292  .00000093  00000-0  17872-3 0  9995
2 05067 100.0977 334.1319 0006974 135.4888 350.5335 13.63615817536875
Epoch (UTC): 21 June 2021 06:09:45
Eccentricity: 0.0006974
inclination: 100.0977°
perigee height: 1017 km
apogee height: 1028 km
right ascension of ascending node: 334.1319°
argument of perigee: 135.4888°
revolutions per day: 13.63615817
mean anomaly at epoch: 350.5335°
orbit number at epoch: 53687

The dashed part of the orbit path shows where the satellite is in the earth's shadow,  

DLR